QPF
0.01 0.05 0.12 0.13 0.12 0.03 0.00 0.00 0.00 0.00 0.00 0.00 0.00 0.00 0.00 0.01 0.04 0.02 0.01 0.02 0.00 0.00 0.00 0.00 0.00 0.00 0.00 0.00 0.00 0.00 0.00 0.00 0.00 0.00 0.00 0.00 0.00 0.00 0.00 0.00 0.00 0.00 0.00 0.00 0.00 0.00 0.00 0.00 0.01
0.05 0.13 0.16 0.18 0.07 0.00 0.00 0.00 0.00 0.00 0.00 0.00 0.00 0.00 0.00 0.00 0.00 0.01 0.02 0.02 0.00 0.00 0.00 0.00 0.00 0.00 0.00 0.00 0.00 0.00 0.00 0.00 0.00 0.00 0.00 0.00 0.00 0.00 0.00 0.00 0.00 0.00 0.00 0.00 0.00 0.00 0.00 0.01 0.01
0.09 0.15 0.19 0.13 0.03 0.01 0.01 0.01 0.00 0.00 0.00 0.00 0.00 0.00 0.00 0.01 0.01 0.01 0.02 0.01 0.00 0.00 0.00 0.00 0.00 0.00 0.00 0.00 0.00 0.00 0.00 0.00 0.00 0.00 0.00 0.00 0.00 0.00 0.00 0.00 0.00 0.00 0.00 0.00 0.00 0.00 0.00 0.00 0.00
0.11 0.16 0.18 0.09 0.02 0.03 0.04 0.03 0.01 0.00 0.00 0.00 0.00 0.00 0.01 0.02 0.01 0.02 0.03 0.01 0.00 0.00 0.00 0.00 0.00 0.00 0.00 0.00 0.00 0.00 0.00 0.00 0.00 0.00 0.00 0.00 0.00 0.00 0.00 0.00 0.00 0.00 0.00 0.00 0.00 0.00 0.00 0.00 0.00
0.12 0.16 0.13 0.09 0.07 0.07 0.09 0.06 0.01 0.01 0.01 0.01 0.00 0.01 0.03 0.03 0.02 0.04 0.07 0.03 0.02 0.01 0.00 0.00 0.00 0.00 0.00 0.00 0.00 0.00 0.00 0.00 0.00 0.00 0.00 0.00 0.00 0.00 0.00 0.00 0.00 0.00 0.00 0.00 0.00 0.00 0.00 0.00 0.00
0.11 0.18 0.13 0.13 0.15 0.13 0.14 0.08 0.03 0.03 0.04 0.04 0.02 0.02 0.05 0.06 0.06 0.07 0.10 0.12 0.11 0.08 0.04 0.03 0.04 0.03 0.02 0.01 0.01 0.01 0.01 0.00 0.00 0.00 0.00 0.00 0.00 0.00 0.00 0.00 0.00 0.00 0.00 0.00 0.00 0.00 0.00 0.00 0.00
0.08 0.14 0.13 0.12 0.16 0.19 0.19 0.09 0.05 0.07 0.09 0.11 0.07 0.06 0.07 0.09 0.09 0.11 0.10 0.13 0.20 0.22 0.18 0.13 0.10 0.09 0.08 0.06 0.04 0.03 0.02 0.02 0.01 0.01 0.01 0.00 0.00 0.00 0.00 0.00 0.00 0.00 0.00 0.00 0.00 0.00 0.00 0.00 0.00
0.02 0.07 0.13 0.21 0.26 0.26 0.24 0.09 0.04 0.04 0.07 0.09 0.10 0.10 0.11 0.12 0.12 0.11 0.13 0.17 0.19 0.23 0.23 0.21 0.19 0.16 0.14 0.12 0.12 0.11 0.09 0.06 0.04 0.02 0.01 0.01 0.01 0.00 0.00 0.00 0.00 0.00 0.00 0.00 0.00 0.00 0.00 0.00 0.00
0.02 0.05 0.12 0.27 0.36 0.25 0.17 0.10 0.06 0.04 0.03 0.05 0.06 0.07 0.08 0.11 0.15 0.14 0.14 0.16 0.18 0.19 0.21 0.22 0.25 0.25 0.23 0.20 0.18 0.20 0.16 0.12 0.09 0.05 0.04 0.02 0.01 0.01 0.01 0.01 0.01 0.00 0.00 0.00 0.00 0.00 0.00 0.00 0.00
0.02 0.06 0.15 0.14 0.13 0.11 0.10 0.09 0.07 0.06 0.04 0.04 0.06 0.06 0.07 0.10 0.15 0.15 0.14 0.15 0.17 0.18 0.19 0.21 0.23 0.26 0.28 0.24 0.25 0.21 0.13 0.12 0.10 0.07 0.06 0.03 0.02 0.01 0.01 0.02 0.04 0.03 0.02 0.01 0.00 0.00 0.00 0.00 0.00
0.02 0.05 0.07 0.06 0.05 0.05 0.05 0.05 0.05 0.04 0.03 0.03 0.04 0.05 0.05 0.07 0.08 0.09 0.10 0.10 0.11 0.13 0.13 0.14 0.14 0.17 0.20 0.21 0.22 0.19 0.14 0.11 0.08 0.06 0.05 0.06 0.04 0.04 0.04 0.03 0.03 0.04 0.03 0.01 0.01 0.00 0.00 0.00 0.00
0.02 0.04 0.04 0.06 0.05 0.05 0.04 0.02 0.02 0.02 0.01 0.01 0.02 0.02 0.03 0.04 0.04 0.05 0.06 0.06 0.06 0.07 0.09 0.10 0.12 0.13 0.14 0.16 0.17 0.17 0.16 0.14 0.10 0.06 0.06 0.09 0.10 0.10 0.11 0.08 0.07 0.04 0.02 0.01 0.01 0.01 0.00 0.00 0.01
0.01 0.02 0.03 0.04 0.04 0.03 0.02 0.01 0.01 0.01 0.01 0.01 0.01 0.02 0.03 0.03 0.03 0.04 0.06 0.06 0.07 0.07 0.06 0.07 0.08 0.09 0.10 0.12 0.15 0.19 0.20 0.17 0.14 0.10 0.09 0.12 0.15 0.18 0.15 0.12 0.10 0.07 0.06 0.03 0.01 0.01 0.01 0.01 0.02
0.01 0.01 0.02 0.02 0.03 0.02 0.02 0.02 0.01 0.01 0.01 0.01 0.01 0.01 0.01 0.02 0.01 0.01 0.02 0.02 0.02 0.03 0.03 0.03 0.04 0.05 0.04 0.06 0.10 0.14 0.17 0.17 0.16 0.16 0.15 0.18 0.22 0.24 0.19 0.15 0.14 0.12 0.11 0.11 0.05 0.02 0.02 0.01 0.02
0.01 0.03 0.04 0.06 0.07 0.07 0.05 0.03 0.01 0.01 0.01 0.01 0.01 0.00 0.00 0.00 0.00 0.00 0.00 0.00 0.01 0.01 0.01 0.02 0.02 0.02 0.02 0.03 0.03 0.05 0.07 0.11 0.14 0.14 0.16 0.16 0.17 0.21 0.24 0.21 0.19 0.17 0.18 0.16 0.13 0.07 0.04 0.03 0.02
0.04 0.08 0.11 0.10 0.12 0.11 0.10 0.06 0.01 0.00 0.01 0.01 0.00 0.00 0.00 0.00 0.00 0.00 0.00 0.00 0.00 0.00 0.00 0.01 0.01 0.01 0.02 0.02 0.02 0.02 0.03 0.05 0.08 0.11 0.13 0.14 0.15 0.16 0.18 0.20 0.21 0.19 0.20 0.21 0.19 0.11 0.07 0.04 0.02
0.05 0.07 0.06 0.05 0.06 0.08 0.07 0.03 0.01 0.00 0.00 0.00 0.00 0.00 0.00 0.00 0.00 0.00 0.00 0.00 0.00 0.00 0.00 0.00 0.00 0.01 0.01 0.01 0.01 0.01 0.02 0.02 0.03 0.06 0.08 0.11 0.14 0.15 0.18 0.22 0.23 0.25 0.24 0.23 0.17 0.13 0.09 0.04 0.02
0.01 0.01 0.00 0.01 0.01 0.02 0.01 0.01 0.01 0.00 0.00 0.00 0.00 0.00 0.00 0.00 0.00 0.00 0.00 0.00 0.00 0.00 0.00 0.00 0.00 0.00 0.00 0.00 0.01 0.00 0.00 0.01 0.01 0.03 0.04 0.06 0.10 0.13 0.15 0.18 0.22 0.27 0.25 0.21 0.18 0.14 0.11 0.07 0.05
0.00 0.00 0.00 0.00 0.00 0.00 0.00 0.00 0.00 0.00 0.00 0.00 0.00 0.00 0.00 0.00 0.00 0.00 0.00 0.00 0.00 0.00 0.00 0.00 0.00 0.00 0.00 0.00 0.00 0.00 0.00 0.00 0.00 0.01 0.03 0.04 0.07 0.10 0.12 0.13 0.18 0.24 0.23 0.21 0.21 0.21 0.19 0.12 0.08
0.00 0.00 0.00 0.00 0.00 0.00 0.00 0.00 0.00 0.00 0.00 0.00 0.00 0.00 0.00 0.00 0.00 0.00 0.00 0.00 0.00 0.00 0.00 0.00 0.00 0.00 0.00 0.00 0.00 0.00 0.00 0.00 0.00 0.01 0.02 0.04 0.05 0.08 0.10 0.12 0.15 0.19 0.19 0.20 0.21 0.24 0.22 0.16 0.11
0.00 0.00 0.00 0.00 0.00 0.00 0.00 0.00 0.00 0.00 0.00 0.00 0.00 0.00 0.00 0.00 0.00 0.00 0.00 0.00 0.00 0.00 0.00 0.00 0.00 0.00 0.00 0.00 0.00 0.01 0.01 0.00 0.01 0.01 0.02 0.03 0.05 0.06 0.08 0.10 0.13 0.17 0.19 0.18 0.17 0.19 0.20 0.19 0.14
0.00 0.00 0.00 0.00 0.00 0.00 0.00 0.00 0.00 0.00 0.00 0.00 0.00 0.00 0.00 0.00 0.00 0.00 0.00 0.00 0.00 0.00 0.00 0.00 0.00 0.00 0.00 0.01 0.01 0.01 0.01 0.01 0.01 0.01 0.02 0.03 0.04 0.05 0.07 0.10 0.12 0.14 0.16 0.16 0.16 0.16 0.17 0.18 0.17
0.00 0.00 0.00 0.00 0.00 0.00 0.00 0.00 0.00 0.00 0.00 0.00 0.00 0.00 0.00 0.00 0.00 0.00 0.00 0.00 0.00 0.00 0.00 0.00 0.00 0.00 0.00 0.01 0.02 0.02 0.01 0.01 0.02 0.02 0.02 0.03 0.04 0.05 0.06 0.08 0.10 0.13 0.15 0.15 0.16 0.17 0.17 0.15 0.15
0.00 0.00 0.00 0.00 0.00 0.00 0.00 0.00 0.00 0.00 0.00 0.00 0.00 0.00 0.00 0.00 0.00 0.00 0.00 0.00 0.00 0.00 0.00 0.00 0.01 0.01 0.01 0.01 0.02 0.03 0.02 0.03 0.04 0.04 0.03 0.04 0.03 0.04 0.06 0.06 0.08 0.12 0.13 0.14 0.15 0.14 0.14 0.15 0.15
0.00 0.00 0.00 0.00 0.00 0.00 0.00 0.00 0.00 0.00 0.00 0.00 0.00 0.00 0.00 0.00 0.00 0.00 0.00 0.00 0.00 0.00 0.00 0.00 0.01 0.01 0.01 0.01 0.02 0.02 0.02 0.03 0.04 0.03 0.05 0.08 0.08 0.06 0.06 0.07 0.07 0.11 0.14 0.14 0.16 0.18 0.15 0.15 0.15
0.00 0.00 0.00 0.00 0.00 0.00 0.00 0.00 0.00 0.00 0.00 0.00 0.00 0.00 0.00 0.00 0.00 0.00 0.00 0.00 0.00 0.00 0.00 0.00 0.00 0.01 0.01 0.01 0.02 0.03 0.04 0.06 0.06 0.07 0.07 0.09 0.10 0.10 0.09 0.11 0.11 0.09 0.13 0.18 0.19 0.21 0.20 0.20 0.17
0.00 0.00 0.00 0.00 0.00 0.00 0.00 0.00 0.00 0.00 0.00 0.00 0.00 0.00 0.00 0.00 0.00 0.00 0.00 0.00 0.00 0.00 0.00 0.00 0.00 0.01 0.01 0.02 0.03 0.04 0.07 0.10 0.11 0.10 0.12 0.12 0.14 0.14 0.14 0.12 0.12 0.11 0.13 0.17 0.21 0.20 0.22 0.23 0.22
0.00 0.00 0.00 0.00 0.00 0.00 0.00 0.00 0.00 0.00 0.00 0.00 0.00 0.00 0.00 0.00 0.00 0.00 0.00 0.00 0.00 0.00 0.00 0.00 0.00 0.01 0.01 0.01 0.03 0.05 0.08 0.08 0.09 0.12 0.14 0.15 0.19 0.21 0.17 0.17 0.14 0.12 0.12 0.13 0.16 0.19 0.19 0.24 0.30
0.00 0.00 0.00 0.00 0.00 0.00 0.00 0.00 0.00 0.00 0.00 0.00 0.00 0.00 0.00 0.00 0.00 0.00 0.00 0.00 0.00 0.00 0.00 0.00 0.00 0.01 0.02 0.01 0.03 0.05 0.07 0.06 0.06 0.11 0.12 0.13 0.17 0.21 0.19 0.16 0.14 0.14 0.14 0.13 0.14 0.16 0.17 0.19 0.24
0.00 0.00 0.00 0.00 0.00 0.00 0.00 0.00 0.00 0.00 0.00 0.00 0.00 0.00 0.00 0.00 0.00 0.00 0.00 0.00 0.00 0.00 0.00 0.00 0.01 0.02 0.02 0.01 0.02 0.03 0.04 0.05 0.04 0.06 0.07 0.06 0.08 0.11 0.14 0.17 0.13 0.13 0.14 0.13 0.14 0.15 0.14 0.15 0.18
MSLP
1010.82 1012.14 1013.62 1015.06 1016.24 1017.01 1017.31 1017.16 1016.67 1016.02 1015.40 1014.98 1014.84 1014.98 1015.34 1015.79 1016.19 1016.41 1016.38 1016.12 1015.70 1015.22 1014.79 1014.51 1014.43 1014.54 1014.77 1015.07 1015.34 1015.53 1015.62 1015.63 1015.61 1015.59 1015.62 1015.72 1015.89 1016.08 1016.27 1016.41 1016.48 1016.49 1016.46 1016.41 1016.39 1016.40 1016.45 1016.52 1016.59
1011.18 1012.69 1014.29 1015.75 1016.88 1017.53 1017.66 1017.32 1016.65 1015.85 1015.12 1014.62 1014.43 1014.54 1014.87 1015.30 1015.68 1015.88 1015.87 1015.65 1015.29 1014.89 1014.56 1014.39 1014.39 1014.56 1014.83 1015.13 1015.40 1015.59 1015.69 1015.71 1015.71 1015.72 1015.78 1015.90 1016.05 1016.21 1016.34 1016.42 1016.44 1016.41 1016.36 1016.33 1016.33 1016.37 1016.46 1016.56 1016.64
1011.65 1013.28 1014.93 1016.38 1017.42 1017.95 1017.93 1017.46 1016.68 1015.80 1015.02 1014.49 1014.28 1014.36 1014.65 1015.02 1015.34 1015.49 1015.45 1015.24 1014.93 1014.61 1014.38 1014.29 1014.37 1014.58 1014.88 1015.18 1015.43 1015.61 1015.71 1015.75 1015.78 1015.83 1015.92 1016.05 1016.19 1016.31 1016.39 1016.41 1016.37 1016.30 1016.24 1016.21 1016.24 1016.32 1016.44 1016.57 1016.68
1012.20 1013.90 1015.55 1016.93 1017.88 1018.29 1018.17 1017.63 1016.81 1015.94 1015.18 1014.68 1014.47 1014.53 1014.76 1015.04 1015.26 1015.33 1015.23 1015.00 1014.71 1014.44 1014.27 1014.26 1014.39 1014.62 1014.91 1015.19 1015.41 1015.56 1015.65 1015.70 1015.76 1015.86 1015.98 1016.13 1016.27 1016.38 1016.42 1016.39 1016.31 1016.21 1016.14 1016.12 1016.17 1016.28 1016.43 1016.59 1016.71
1012.80 1014.51 1016.11 1017.41 1018.26 1018.59 1018.42 1017.87 1017.10 1016.31 1015.64 1015.21 1015.03 1015.06 1015.22 1015.39 1015.48 1015.44 1015.25 1014.97 1014.68 1014.44 1014.31 1014.33 1014.47 1014.69 1014.94 1015.15 1015.31 1015.42 1015.48 1015.54 1015.63 1015.77 1015.94 1016.13 1016.29 1016.40 1016.42 1016.37 1016.27 1016.17 1016.09 1016.09 1016.15 1016.29 1016.46 1016.62 1016.76
1013.43 1015.10 1016.62 1017.82 1018.57 1018.84 1018.68 1018.20 1017.54 1016.89 1016.36 1016.02 1015.89 1015.90 1015.98 1016.03 1015.99 1015.81 1015.53 1015.19 1014.87 1014.63 1014.51 1014.52 1014.64 1014.81 1014.98 1015.10 1015.17 1015.21 1015.23 1015.28 1015.39 1015.57 1015.80 1016.03 1016.23 1016.36 1016.41 1016.37 1016.27 1016.18 1016.12 1016.12 1016.21 1016.35 1016.52 1016.68 1016.81
1014.06 1015.65 1017.06 1018.14 1018.82 1019.07 1018.95 1018.58 1018.08 1017.60 1017.23 1017.02 1016.94 1016.94 1016.94 1016.87 1016.69 1016.39 1016.01 1015.61 1015.26 1015.00 1014.87 1014.85 1014.91 1014.99 1015.06 1015.07 1015.03 1014.98 1014.95 1014.98 1015.10 1015.31 1015.58 1015.86 1016.11 1016.28 1016.36 1016.35 1016.29 1016.22 1016.19 1016.22 1016.31 1016.45 1016.62 1016.76 1016.86
1014.66 1016.14 1017.42 1018.39 1018.99 1019.24 1019.20 1018.96 1018.64 1018.35 1018.14 1018.04 1018.01 1017.99 1017.93 1017.76 1017.47 1017.07 1016.61 1016.16 1015.78 1015.51 1015.35 1015.29 1015.28 1015.26 1015.20 1015.09 1014.94 1014.80 1014.70 1014.70 1014.81 1015.03 1015.33 1015.65 1015.94 1016.15 1016.27 1016.31 1016.29 1016.27 1016.27 1016.32 1016.43 1016.57 1016.72 1016.83 1016.91
1015.19 1016.54 1017.69 1018.55 1019.10 1019.36 1019.40 1019.30 1019.15 1019.02 1018.96 1018.95 1018.95 1018.92 1018.80 1018.55 1018.18 1017.72 1017.22 1016.75 1016.36 1016.08 1015.91 1015.79 1015.71 1015.59 1015.42 1015.19 1014.94 1014.70 1014.54 1014.49 1014.58 1014.80 1015.10 1015.43 1015.73 1015.97 1016.13 1016.20 1016.23 1016.26 1016.30 1016.39 1016.52 1016.66 1016.79 1016.89 1016.93
1015.63 1016.86 1017.87 1018.64 1019.15 1019.43 1019.54 1019.56 1019.54 1019.55 1019.59 1019.64 1019.66 1019.60 1019.43 1019.13 1018.72 1018.23 1017.73 1017.28 1016.91 1016.64 1016.45 1016.30 1016.15 1015.95 1015.69 1015.37 1015.03 1014.72 1014.49 1014.40 1014.45 1014.63 1014.90 1015.20 1015.50 1015.73 1015.90 1016.01 1016.09 1016.16 1016.25 1016.38 1016.54 1016.69 1016.83 1016.91 1016.93
1015.98 1017.09 1018.00 1018.68 1019.15 1019.45 1019.63 1019.74 1019.83 1019.92 1020.02 1020.09 1020.10 1020.01 1019.79 1019.46 1019.03 1018.56 1018.09 1017.68 1017.34 1017.10 1016.91 1016.75 1016.55 1016.30 1015.97 1015.59 1015.18 1014.82 1014.55 1014.40 1014.40 1014.52 1014.74 1014.98 1015.23 1015.44 1015.60 1015.72 1015.83 1015.95 1016.09 1016.27 1016.46 1016.64 1016.79 1016.87 1016.90
1016.27 1017.27 1018.08 1018.70 1019.15 1019.47 1019.70 1019.87 1020.02 1020.16 1020.27 1020.32 1020.29 1020.15 1019.90 1019.55 1019.13 1018.69 1018.27 1017.91 1017.63 1017.42 1017.25 1017.07 1016.85 1016.57 1016.20 1015.79 1015.36 1014.97 1014.66 1014.48 1014.42 1014.47 1014.59 1014.76 1014.94 1015.09 1015.22 1015.35 1015.48 1015.64 1015.83 1016.05 1016.29 1016.50 1016.68 1016.78 1016.83
1016.52 1017.43 1018.16 1018.74 1019.18 1019.51 1019.78 1020.00 1020.18 1020.32 1020.41 1020.41 1020.32 1020.13 1019.85 1019.48 1019.08 1018.68 1018.32 1018.02 1017.78 1017.60 1017.43 1017.25 1017.02 1016.72 1016.34 1015.93 1015.50 1015.11 1014.78 1014.56 1014.45 1014.42 1014.46 1014.53 1014.62 1014.71 1014.80 1014.91 1015.06 1015.25 1015.48 1015.75 1016.03 1016.29 1016.49 1016.63 1016.71
1016.80 1017.62 1018.28 1018.82 1019.26 1019.63 1019.93 1020.18 1020.37 1020.50 1020.54 1020.48 1020.32 1020.07 1019.74 1019.37 1018.98 1018.62 1018.30 1018.04 1017.83 1017.65 1017.48 1017.29 1017.04 1016.73 1016.36 1015.96 1015.55 1015.18 1014.86 1014.61 1014.45 1014.35 1014.30 1014.28 1014.29 1014.31 1014.37 1014.46 1014.62 1014.83 1015.10 1015.40 1015.71 1016.01 1016.25 1016.43 1016.53
1017.14 1017.85 1018.46 1018.97 1019.42 1019.82 1020.16 1020.44 1020.64 1020.73 1020.73 1020.61 1020.38 1020.08 1019.71 1019.33 1018.95 1018.60 1018.30 1018.05 1017.84 1017.65 1017.45 1017.22 1016.95 1016.63 1016.27 1015.89 1015.51 1015.16 1014.85 1014.59 1014.39 1014.23 1014.11 1014.02 1013.96 1013.93 1013.95 1014.04 1014.20 1014.43 1014.72 1015.05 1015.39 1015.70 1015.96 1016.17 1016.31
1017.54 1018.15 1018.70 1019.19 1019.65 1020.08 1020.47 1020.77 1020.98 1021.06 1021.01 1020.84 1020.56 1020.21 1019.81 1019.41 1019.03 1018.68 1018.38 1018.11 1017.87 1017.63 1017.38 1017.10 1016.79 1016.45 1016.10 1015.73 1015.38 1015.06 1014.76 1014.50 1014.27 1014.07 1013.90 1013.75 1013.64 1013.59 1013.59 1013.68 1013.85 1014.09 1014.39 1014.72 1015.06 1015.38 1015.65 1015.87 1016.03
1018.00 1018.51 1018.98 1019.46 1019.94 1020.40 1020.83 1021.17 1021.38 1021.46 1021.38 1021.16 1020.85 1020.46 1020.04 1019.63 1019.24 1018.88 1018.56 1018.26 1017.96 1017.66 1017.34 1016.99 1016.63 1016.26 1015.90 1015.54 1015.21 1014.91 1014.62 1014.36 1014.11 1013.88 1013.67 1013.49 1013.36 1013.29 1013.29 1013.39 1013.56 1013.81 1014.11 1014.43 1014.75 1015.06 1015.32 1015.54 1015.72
1018.47 1018.87 1019.29 1019.75 1020.25 1020.75 1021.21 1021.58 1021.81 1021.87 1021.77 1021.53 1021.18 1020.77 1020.34 1019.92 1019.53 1019.16 1018.81 1018.47 1018.11 1017.74 1017.34 1016.93 1016.51 1016.10 1015.72 1015.36 1015.04 1014.74 1014.46 1014.18 1013.92 1013.67 1013.43 1013.23 1013.09 1013.02 1013.04 1013.14 1013.33 1013.57 1013.86 1014.16 1014.46 1014.73 1014.98 1015.20 1015.39
1018.90 1019.22 1019.60 1020.05 1020.57 1021.10 1021.59 1021.97 1022.19 1022.24 1022.11 1021.85 1021.48 1021.06 1020.63 1020.21 1019.82 1019.44 1019.07 1018.69 1018.29 1017.85 1017.39 1016.91 1016.45 1016.00 1015.60 1015.23 1014.90 1014.59 1014.30 1014.01 1013.72 1013.45 1013.19 1012.98 1012.84 1012.77 1012.80 1012.91 1013.10 1013.33 1013.60 1013.87 1014.14 1014.39 1014.62 1014.83 1015.04
1019.27 1019.53 1019.90 1020.36 1020.90 1021.45 1021.94 1022.32 1022.52 1022.53 1022.36 1022.06 1021.66 1021.23 1020.80 1020.39 1020.01 1019.64 1019.27 1018.87 1018.44 1017.96 1017.46 1016.94 1016.44 1015.97 1015.54 1015.16 1014.81 1014.49 1014.17 1013.85 1013.54 1013.23 1012.95 1012.72 1012.56 1012.50 1012.52 1012.64 1012.82 1013.04 1013.29 1013.53 1013.77 1013.99 1014.21 1014.43 1014.66
1019.56 1019.82 1020.20 1020.70 1021.26 1021.82 1022.29 1022.62 1022.77 1022.71 1022.47 1022.11 1021.68 1021.23 1020.80 1020.41 1020.05 1019.71 1019.35 1018.96 1018.53 1018.04 1017.52 1016.99 1016.47 1015.99 1015.54 1015.15 1014.78 1014.43 1014.08 1013.72 1013.36 1013.01 1012.69 1012.44 1012.26 1012.18 1012.19 1012.30 1012.46 1012.66 1012.88 1013.10 1013.31 1013.52 1013.73 1013.98 1014.25
1019.79 1020.10 1020.54 1021.09 1021.68 1022.22 1022.66 1022.91 1022.96 1022.80 1022.46 1022.02 1021.53 1021.05 1020.62 1020.24 1019.91 1019.61 1019.29 1018.93 1018.53 1018.06 1017.56 1017.03 1016.52 1016.04 1015.59 1015.18 1014.78 1014.40 1014.01 1013.61 1013.20 1012.80 1012.44 1012.15 1011.93 1011.82 1011.80 1011.87 1012.01 1012.18 1012.36 1012.55 1012.74 1012.95 1013.18 1013.44 1013.76
1020.03 1020.43 1020.96 1021.56 1022.17 1022.70 1023.06 1023.21 1023.13 1022.83 1022.38 1021.83 1021.27 1020.75 1020.30 1019.94 1019.64 1019.39 1019.12 1018.81 1018.45 1018.03 1017.56 1017.07 1016.57 1016.10 1015.65 1015.23 1014.82 1014.41 1013.98 1013.54 1013.08 1012.63 1012.22 1011.87 1011.61 1011.45 1011.38 1011.41 1011.49 1011.61 1011.76 1011.92 1012.09 1012.29 1012.53 1012.83 1013.20
1020.31 1020.83 1021.45 1022.12 1022.74 1023.23 1023.50 1023.53 1023.30 1022.86 1022.27 1021.61 1020.97 1020.40 1019.94 1019.59 1019.32 1019.11 1018.90 1018.65 1018.34 1017.97 1017.54 1017.09 1016.62 1016.16 1015.73 1015.30 1014.88 1014.45 1013.99 1013.51 1013.01 1012.52 1012.06 1011.66 1011.35 1011.12 1011.00 1010.95 1010.97 1011.04 1011.13 1011.25 1011.40 1011.59 1011.83 1012.15 1012.54
1020.65 1021.29 1022.01 1022.73 1023.34 1023.78 1023.95 1023.85 1023.48 1022.89 1022.16 1021.40 1020.69 1020.08 1019.60 1019.26 1019.03 1018.86 1018.69 1018.50 1018.24 1017.92 1017.54 1017.12 1016.68 1016.24 1015.82 1015.39 1014.97 1014.52 1014.05 1013.55 1013.03 1012.51 1012.01 1011.57 1011.20 1010.92 1010.72 1010.60 1010.55 1010.54 1010.57 1010.63 1010.73 1010.89 1011.12 1011.43 1011.83
1021.05 1021.79 1022.58 1023.32 1023.91 1024.27 1024.35 1024.12 1023.62 1022.91 1022.08 1021.24 1020.48 1019.84 1019.36 1019.03 1018.83 1018.68 1018.56 1018.40 1018.18 1017.90 1017.56 1017.17 1016.75 1016.34 1015.92 1015.51 1015.08 1014.64 1014.17 1013.67 1013.14 1012.62 1012.11 1011.64 1011.23 1010.89 1010.62 1010.42 1010.29 1010.19 1010.14 1010.13 1010.17 1010.27 1010.45 1010.73 1011.10
1021.46 1022.25 1023.07 1023.79 1024.34 1024.62 1024.60 1024.27 1023.67 1022.88 1021.99 1021.12 1020.34 1019.70 1019.22 1018.91 1018.72 1018.61 1018.50 1018.37 1018.18 1017.92 1017.61 1017.24 1016.85 1016.45 1016.05 1015.65 1015.24 1014.81 1014.36 1013.87 1013.37 1012.86 1012.35 1011.87 1011.44 1011.06 1010.74 1010.47 1010.24 1010.06 1009.91 1009.81 1009.76 1009.79 1009.90 1010.10 1010.41
1021.81 1022.60 1023.39 1024.06 1024.53 1024.73 1024.62 1024.22 1023.57 1022.75 1021.86 1020.99 1020.23 1019.61 1019.17 1018.88 1018.70 1018.60 1018.50 1018.38 1018.21 1017.97 1017.67 1017.32 1016.95 1016.57 1016.19 1015.81 1015.42 1015.02 1014.60 1014.15 1013.68 1013.20 1012.72 1012.26 1011.82 1011.42 1011.05 1010.72 1010.42 1010.15 1009.91 1009.71 1009.57 1009.50 1009.51 1009.62 1009.84
1022.02 1022.76 1023.47 1024.05 1024.43 1024.54 1024.36 1023.92 1023.26 1022.46 1021.62 1020.81 1020.10 1019.54 1019.13 1018.86 1018.70 1018.59 1018.50 1018.38 1018.21 1017.98 1017.70 1017.38 1017.04 1016.69 1016.34 1015.98 1015.63 1015.26 1014.88 1014.47 1014.05 1013.61 1013.17 1012.73 1012.31 1011.90 1011.50 1011.13 1010.77 1010.43 1010.11 1009.82 1009.58 1009.40 1009.31 1009.31 1009.42
1022.06 1022.71 1023.30 1023.75 1024.01 1024.04 1023.81 1023.36 1022.74 1022.00 1021.24 1020.53 1019.91 1019.41 1019.04 1018.80 1018.64 1018.52 1018.42 1018.29 1018.13 1017.92 1017.66 1017.38 1017.08 1016.77 1016.46 1016.15 1015.83 1015.50 1015.16 1014.79 1014.41 1014.02 1013.62 1013.21 1012.80 1012.40 1012.00 1011.60 1011.21 1010.81 1010.43 1010.07 1009.75 1009.49 1009.29 1009.19 1009.19
Thickness
5836 5833 5828 5815 5790 5771 5769 5782 5793 5795 5797 5806 5810 5804 5792 5784 5776 5768 5792 5798 5796 5793 5791 5789 5788 5787 5786 5784 5783 5782 5781 5779 5778 5777 5776 5775 5774 5772 5771 5771 5770 5769 5768 5767 5767 5766 5766 5765 5765
5838 5833 5821 5802 5775 5755 5765 5784 5789 5797 5804 5811 5809 5803 5794 5788 5793 5789 5792 5796 5796 5793 5790 5789 5788 5786 5785 5784 5783 5782 5781 5779 5778 5777 5776 5774 5773 5772 5771 5770 5769 5769 5768 5767 5766 5766 5765 5764 5764
5841 5833 5810 5789 5772 5762 5770 5787 5793 5803 5811 5810 5800 5799 5792 5788 5794 5792 5795 5796 5794 5792 5790 5788 5787 5786 5785 5784 5783 5781 5780 5779 5778 5776 5775 5774 5773 5772 5771 5770 5769 5768 5767 5767 5766 5765 5764 5764 5763
5838 5819 5803 5782 5771 5779 5784 5791 5801 5801 5803 5804 5798 5787 5791 5799 5799 5797 5798 5797 5794 5791 5789 5788 5786 5785 5784 5783 5782 5781 5780 5778 5777 5776 5774 5773 5772 5771 5770 5770 5769 5768 5767 5766 5765 5764 5763 5763 5763
5832 5807 5784 5771 5773 5780 5787 5796 5802 5794 5790 5791 5791 5777 5779 5794 5801 5799 5796 5795 5793 5790 5788 5787 5786 5784 5783 5782 5781 5780 5779 5777 5776 5775 5774 5773 5772 5771 5770 5769 5768 5767 5766 5766 5765 5764 5763 5762 5762
5813 5796 5769 5760 5768 5777 5782 5790 5794 5787 5783 5784 5783 5775 5772 5787 5791 5792 5793 5792 5791 5789 5786 5785 5784 5783 5782 5781 5779 5778 5777 5776 5775 5774 5773 5772 5771 5770 5769 5768 5768 5767 5766 5765 5764 5763 5763 5762 5762
5806 5786 5769 5764 5764 5769 5779 5788 5781 5776 5774 5775 5780 5770 5769 5777 5782 5786 5787 5786 5785 5783 5782 5780 5780 5779 5779 5778 5777 5776 5775 5774 5774 5773 5772 5771 5770 5769 5768 5767 5767 5766 5765 5765 5764 5763 5763 5762 5762
5816 5789 5771 5764 5761 5762 5777 5784 5778 5772 5768 5776 5776 5761 5758 5768 5776 5779 5780 5778 5777 5776 5775 5774 5774 5774 5774 5774 5774 5773 5773 5772 5771 5771 5771 5770 5769 5768 5767 5766 5766 5765 5765 5764 5764 5763 5763 5762 5761
5818 5778 5761 5764 5763 5763 5773 5774 5772 5770 5766 5765 5765 5760 5762 5768 5771 5770 5768 5767 5767 5768 5768 5768 5768 5769 5769 5770 5771 5770 5770 5770 5769 5769 5769 5768 5767 5767 5766 5765 5765 5764 5764 5764 5763 5763 5762 5762 5761
5802 5769 5770 5777 5773 5766 5766 5765 5763 5755 5751 5750 5752 5756 5761 5762 5762 5758 5756 5754 5755 5757 5760 5761 5763 5763 5764 5766 5767 5767 5767 5767 5767 5767 5767 5767 5766 5765 5764 5764 5764 5763 5763 5763 5763 5763 5762 5762 5761
5797 5776 5778 5778 5776 5770 5762 5755 5757 5747 5737 5739 5741 5745 5750 5751 5751 5750 5748 5748 5748 5749 5751 5754 5756 5757 5758 5759 5761 5762 5763 5764 5764 5764 5764 5764 5764 5763 5763 5763 5763 5763 5762 5762 5762 5761 5761 5761 5761
5788 5781 5781 5777 5776 5767 5759 5752 5744 5739 5736 5742 5742 5742 5742 5740 5739 5739 5739 5739 5740 5741 5743 5745 5747 5749 5751 5752 5754 5756 5757 5758 5759 5761 5761 5761 5761 5761 5761 5761 5761 5761 5761 5761 5760 5760 5760 5760 5760
5782 5774 5774 5770 5766 5758 5752 5743 5737 5732 5737 5738 5737 5735 5732 5730 5729 5730 5731 5731 5731 5731 5733 5735 5738 5740 5742 5744 5746 5748 5750 5752 5753 5755 5757 5758 5759 5759 5759 5759 5758 5759 5759 5759 5759 5759 5759 5759 5759
5783 5774 5766 5763 5760 5753 5743 5736 5731 5726 5731 5729 5727 5724 5722 5721 5720 5720 5720 5719 5720 5721 5723 5726 5728 5730 5733 5734 5737 5740 5742 5745 5747 5749 5752 5754 5755 5756 5756 5756 5755 5755 5756 5756 5757 5758 5758 5758 5759
5783 5763 5755 5753 5752 5746 5740 5721 5721 5725 5724 5718 5716 5714 5713 5711 5711 5709 5709 5709 5710 5711 5713 5715 5718 5720 5722 5724 5727 5731 5734 5737 5740 5743 5745 5748 5750 5752 5753 5753 5753 5752 5752 5752 5753 5755 5756 5756 5757
5767 5749 5736 5745 5747 5742 5728 5702 5716 5721 5715 5707 5705 5704 5702 5701 5701 5701 5701 5701 5701 5701 5702 5705 5708 5710 5712 5714 5717 5721 5725 5728 5732 5736 5739 5741 5744 5746 5748 5748 5749 5749 5749 5748 5748 5750 5751 5753 5754
5746 5731 5728 5733 5741 5733 5716 5699 5709 5713 5706 5698 5695 5693 5691 5691 5692 5693 5693 5692 5692 5692 5693 5694 5696 5699 5701 5704 5708 5711 5715 5719 5723 5727 5731 5734 5737 5740 5742 5744 5745 5746 5746 5745 5746 5746 5747 5748 5751
5732 5728 5724 5721 5727 5720 5704 5696 5701 5703 5698 5690 5686 5683 5682 5681 5682 5684 5685 5685 5684 5683 5684 5685 5686 5688 5691 5694 5697 5701 5704 5709 5713 5717 5722 5725 5729 5732 5735 5737 5740 5741 5741 5741 5741 5742 5744 5746 5748
5742 5729 5718 5719 5727 5712 5697 5690 5691 5694 5689 5683 5679 5676 5675 5675 5677 5677 5677 5676 5675 5675 5674 5675 5676 5678 5680 5683 5685 5688 5692 5698 5703 5708 5712 5716 5720 5724 5727 5730 5733 5735 5736 5737 5738 5737 5737 5739 5742
5734 5718 5713 5717 5723 5707 5689 5684 5687 5687 5684 5680 5675 5672 5671 5670 5669 5669 5669 5668 5667 5666 5666 5667 5667 5669 5671 5674 5676 5680 5683 5688 5693 5698 5703 5707 5711 5715 5719 5722 5725 5728 5729 5731 5732 5732 5731 5733 5736
5724 5715 5711 5708 5711 5702 5684 5673 5677 5680 5681 5678 5674 5671 5669 5667 5664 5663 5662 5661 5660 5659 5659 5659 5660 5662 5664 5667 5669 5672 5675 5679 5682 5686 5691 5697 5702 5706 5710 5714 5718 5721 5724 5726 5728 5729 5728 5726 5729
5715 5725 5720 5711 5693 5679 5682 5655 5665 5670 5670 5669 5667 5665 5664 5663 5662 5660 5659 5657 5655 5654 5654 5654 5654 5656 5658 5660 5661 5662 5664 5666 5670 5675 5680 5686 5692 5697 5702 5706 5710 5714 5718 5721 5724 5726 5726 5724 5723
5722 5728 5718 5709 5694 5681 5678 5658 5657 5665 5661 5663 5664 5664 5664 5662 5661 5658 5657 5655 5654 5652 5651 5650 5650 5651 5652 5653 5654 5655 5656 5659 5663 5667 5671 5677 5682 5688 5693 5698 5702 5706 5711 5715 5718 5721 5722 5722 5721
5728 5716 5704 5690 5678 5665 5675 5660 5654 5656 5663 5664 5665 5664 5663 5662 5661 5658 5657 5655 5652 5651 5649 5648 5646 5647 5648 5648 5649 5650 5651 5653 5656 5659 5663 5667 5673 5678 5684 5690 5695 5700 5704 5708 5712 5714 5716 5718 5718
5714 5688 5668 5664 5654 5658 5676 5665 5659 5669 5673 5670 5666 5665 5665 5663 5660 5658 5656 5653 5651 5649 5648 5646 5644 5644 5645 5645 5645 5646 5647 5649 5650 5653 5656 5660 5664 5669 5675 5681 5687 5692 5697 5702 5706 5708 5710 5713 5714
5708 5690 5666 5655 5651 5658 5671 5662 5665 5678 5678 5676 5672 5669 5667 5664 5661 5659 5657 5654 5652 5650 5648 5646 5644 5642 5643 5643 5643 5644 5645 5646 5647 5649 5651 5654 5658 5662 5668 5674 5680 5685 5690 5695 5700 5702 5705 5708 5709
5706 5693 5689 5668 5666 5658 5661 5665 5672 5678 5675 5673 5671 5669 5667 5666 5665 5662 5660 5657 5654 5651 5649 5647 5645 5643 5642 5641 5642 5642 5644 5644 5644 5646 5648 5649 5653 5657 5661 5667 5672 5677 5682 5687 5691 5695 5698 5702 5705
5715 5703 5680 5670 5659 5649 5660 5662 5658 5668 5670 5672 5671 5670 5669 5669 5666 5664 5661 5659 5656 5654 5651 5649 5647 5644 5642 5641 5641 5641 5641 5642 5642 5643 5643 5645 5647 5651 5654 5659 5663 5668 5674 5679 5683 5687 5692 5695 5698
5707 5700 5683 5667 5661 5651 5645 5657 5681 5677 5677 5674 5673 5674 5673 5671 5668 5666 5664 5662 5659 5656 5653 5650 5647 5645 5643 5641 5640 5639 5639 5639 5639 5639 5639 5640 5642 5645 5648 5651 5655 5660 5665 5670 5675 5679 5684 5687 5691
5714 5703 5686 5670 5666 5659 5648 5660 5694 5687 5684 5680 5678 5678 5678 5676 5672 5669 5667 5664 5660 5657 5654 5651 5648 5646 5644 5642 5640 5639 5637 5637 5636 5636 5636 5637 5638 5640 5642 5645 5648 5652 5657 5661 5666 5670 5675 5679 5683